STARLINK-1262, 45366

Orbit data source: Space-Track

STARLINK-1262, 45366 is a payload satellite owned by SpaceX/Seattle (US) in LEO that was launched on Wed, 18 Mar 2020 UTC via an FALCON 9 launch vehicle from the Air Force Eastern Test Range (AFETR). Payload-class satellites include a variety of spacecraft equipped with specific instruments for various scientific and technological missions. These include communications satellites like Starlink; space stations such as the ISS; scientific satellites like the Hubble; Earth observation satellites from companies like Planet Labs, Umbra, and HawkEye 360; GPS; miniature CubeSats for education and research; and military/defense satellites.

Loading next visibility...
Identifier
45366, 2020-019G
Orbit
LEO
Last TLE update
13 hours ago
Origin
Manufacturer
SpaceX/Seattle
Mission
Operational Commercial Communications
Bus & Motor
STARLINK, Unknown motor
Mass
260 kg wet, ~248 kg dry
Launch date (UTC)
2020-03-18 (5 years ago)
Launch vehicle
FALCON 9
Launch site
Air Force Eastern Test Range (AFETR)
Object type
Payload
Rocket body
Debris
Shape & HBR
Box + 1 Pan, 8.86 m
Radar Cross Section
13.562 m², Large (>1 m²)

Expand to show TLE details & history

TLE from 13 hours ago
0 STARLINK-1262
1 45366U 20019G   25182.36995609  .00000780  00000-0  71214-4 0  9995
2 45366  53.0534 214.8354 0001041  85.2337 274.8771 15.06402401291851
Epoch: 2025-07-01T08:52Z
TLE epoch observation values (Epoch: 2025-07-01T08:52:44.206Z)
Latitude
0.00001°
Longitude
161.98482°
Altitude
548.022 km
Speed
7.589 km/s
True Right ascension
14h 19m 20s
True Declination
0° 00' 00"
Sunlit
Object was in daylight at epoch
Visualization orbit readout
Latitude
51.4908°
Longitude
-130.40742°
Altitude
552.65 km
Speed
7.592 km/s
Apparent Right ascension
20h 19m 22s
Apparent Declination
8° 46' 34"
Sunlit
Object is in daylight
Visualization observer readout
Local Sidereal Time
09:37:59
Azimuth
24.956° NE
Elevation
-38.021°
Doppler factor
1
Orbital elements
Apogee altitude
548.196 km
Perigee altitude
546.754 km
Semi-major axis
6,925.612 km
Eccentricity
0.0001
Inclination
53.0534°
RAAN
214.8354°
Arg. of periapsis
85.2337°
True anomaly
Unknown
Mean anomaly
274.8771°
Eccentric anomaly
Unknown
Mean motion
3.76579 °/min
Orbital period
95.6 mins
BSTAR
0.000071214
Loading maneuver chart data...
Loading SW <> Apogee altitude chart data...
Loading historical data...
Loading historical data...
Loading historical data...
Loading historical data...
Loading historical data...
Loading historical data...
Loading historical data...

STARLINK-1262 Visibility forecast

Observer location: undefined°, undefined°

Span
Click to sort rows by Start time (UTC) header in descending order
Start Az.
Max El. time (UTC)
Max El. Az.
Max El.
End time (UTC)
End Az.
6 mins2025-07-02 04:08:38.585Z192.431° SSW2025-07-02 04:11:38.585Z130.738° SE29.525°2025-07-02 04:14:38.585Z71.124° E
6 mins2025-07-02 05:48:38.585Z271.437° WNW2025-07-02 05:50:38.585Z313.228° NW29.977°2025-07-02 05:54:38.585Z35.91° NE
6 mins2025-07-02 10:50:38.585Z334.018° NNW2025-07-02 10:52:38.585Z20.923° NNE31.797°2025-07-02 10:56:38.585Z101.23° ESE
5 mins2025-07-02 12:30:38.585Z271.461° WNW2025-07-02 12:32:38.585Z220.093° SW27.368°2025-07-02 12:35:38.585Z168.114° S
|